Date String (YYYY-MM-DD hh:mm:ss) UTC,Instrument flags,Ambient pressure (hPa),Sample flow (lpm),Bypass flow (lpm),Sample temperature (°C),Ambient temperature (°C),ASC tube jacket temperature (°C),LED temperature (°C),Box temperature (°C),Sample RH (%),Span deviation,Mass concentration (μg/m³),Mass concentration (μg/m³),Mass concentration (μg/m³)
DateTimeUTC,F1_M11,P_M11,Q1_M11,Q2_M11,T1_M11,T2_M11,T3_M11,T4_M11,T5_M11,U1_M11,ZSPAN_M11,X0_M11,X2_M11,X1_M11
2022-07-21 15:00:00,,0829.3,5.00,0.00,29.7,28.1,00.0,38.5,31.6,27.3,0000.0,0021.00,0007.12,0004.92
2022-07-21 15:01:00,,0829.2,5.00,0.00,29.7,28.2,00.0,38.5,31.6,27.0,0000.0,0020.32,0007.07,0004.91
2022-07-21 15:02:00,,0829.3,5.00,0.00,29.7,28.4,00.0,38.5,31.6,27.7,0000.0,0019.91,0007.03,0004.89
2022-07-21 15:03:00,,0829.2,5.00,0.00,29.8,28.5,00.0,38.5,31.7,27.9,0000.0,0019.83,0007.00,0004.89
2022-07-21 15:04:00,,0829.3,5.00,0.00,29.8,28.6,00.0,38.5,31.8,28.0,0000.0,0019.17,0006.90,0004.87
2022-07-21 15:05:00,,0829.2,4.99,0.00,29.8,28.7,00.0,38.5,31.8,28.0,0000.0,0019.54,0006.90,0004.87
2022-07-21 15:06:00,,0829.3,5.00,0.00,29.8,28.5,00.0,38.5,31.8,27.6,0000.0,0020.06,0006.86,0004.86
2022-07-21 15:07:00,,0829.3,5.00,0.00,29.8,27.8,00.0,38.4,31.7,27.0,0000.0,0020.73,0006.83,0004.85
2022-07-21 15:08:00,,0829.3,5.01,0.00,29.8,27.5,00.0,38.4,31.6,26.7,0000.0,0020.68,0006.78,0004.83
2022-07-21 15:09:00,,0829.2,4.99,0.00,29.8,27.5,00.0,38.4,31.5,27.4,0000.0,0020.01,0006.70,0004.83
2022-07-21 15:10:00,,0829.2,5.00,0.00,29.7,27.6,00.0,38.4,31.5,28.0,0000.0,0020.00,0006.73,0004.84
2022-07-21 15:11:00,,0829.3,5.00,0.00,29.7,27.8,00.0,38.4,31.5,28.3,0000.0,0018.95,0006.73,0004.84
2022-07-21 15:12:00,,0829.2,5.01,0.00,29.7,27.9,00.0,38.4,31.5,27.9,0000.0,0019.78,0006.83,0004.85
2022-07-21 15:13:00,,0829.3,4.99,0.00,29.7,28.1,00.0,38.4,31.5,27.9,0000.0,0020.50,0006.84,0004.86
2022-07-21 15:14:00,,0829.3,5.00,0.00,29.7,28.2,00.0,38.4,31.6,28.2,0000.0,0020.31,0006.84,0004.86
2022-07-21 15:15:00,,0829.3,5.01,0.00,29.7,28.3,00.0,38.5,31.6,27.8,0000.0,0020.54,0006.91,0004.86
2022-07-21 15:16:00,,0829.3,5.00,0.00,29.7,28.5,00.0,38.5,31.7,28.0,0000.0,0020.89,0006.97,0004.86
2022-07-21 15:17:00,,0829.3,4.99,0.00,29.8,28.6,00.0,38.5,31.7,27.2,0000.0,0020.52,0006.97,0004.88
2022-07-21 15:18:00,,0829.3,5.00,0.00,29.8,28.5,00.0,38.5,31.7,27.1,0000.0,0019.17,0006.92,0004.89
2022-07-21 15:19:00,,0829.2,5.00,0.00,29.8,27.9,00.0,38.4,31.7,27.4,0000.0,0019.93,0006.95,0004.90
2022-07-21 15:20:00,,0829.3,5.01,0.00,29.8,27.5,00.0,38.4,31.6,27.2,0000.0,0020.88,0006.96,0004.89
2022-07-21 15:21:00,,0829.3,4.99,0.00,29.7,27.4,00.0,38.4,31.5,27.8,0000.0,0021.71,0006.84,0004.89
2022-07-21 15:22:00,,0829.2,5.01,0.00,29.7,27.5,00.0,38.4,31.5,27.9,0000.0,0022.51,0006.82,0004.89
2022-07-21 15:23:00,,0829.2,5.00,0.00,29.6,27.7,00.0,38.4,31.5,27.4,0000.0,0022.47,0006.85,0004.89
2022-07-21 15:24:00,,0829.2,5.00,0.00,29.6,27.8,00.0,38.4,31.5,27.8,0000.0,0021.30,0006.91,0004.89
2022-07-21 15:25:00,,0829.2,5.00,0.00,29.7,28.0,00.0,38.4,31.5,28.0,0000.0,0020.58,0006.84,0004.88
2022-07-21 15:26:00,,0829.2,5.00,0.00,29.7,28.1,00.0,38.4,31.6,27.2,0000.0,0020.43,0006.80,0004.89
2022-07-21 15:27:00,,0829.2,5.01,0.00,29.7,28.3,00.0,38.4,31.6,27.0,0000.0,0020.51,0006.80,0004.89
2022-07-21 15:28:00,,0829.2,5.00,0.00,29.7,28.4,00.0,38.4,31.6,27.8,0000.0,0021.00,0006.80,0004.87
2022-07-21 15:29:00,,0829.3,5.01,0.00,29.7,28.5,00.0,38.4,31.7,28.1,0000.0,0021.46,0006.82,0004.88
2022-07-21 15:30:00,,0829.2,5.00,0.00,29.8,28.4,00.0,38.4,31.7,27.3,0000.0,0020.66,0006.76,0004.89
2022-07-21 15:31:00,,0829.2,5.00,0.00,29.7,27.7,00.0,38.4,31.6,26.8,0000.0,0019.52,0006.69,0004.89
2022-07-21 15:32:00,,0829.2,5.00,0.00,29.7,27.4,00.0,38.3,31.5,26.9,0000.0,0018.77,0006.76,0004.89
2022-07-21 15:33:00,,0829.2,5.00,0.00,29.7,27.5,00.0,38.3,31.5,27.3,0000.0,0018.08,0006.79,0004.90
2022-07-21 15:34:00,,0829.2,5.00,0.00,29.6,27.6,00.0,38.3,31.4,27.5,0000.0,0018.03,0006.71,0004.90
2022-07-21 15:35:00,,0829.1,4.99,0.00,29.6,27.7,00.0,38.3,31.4,27.8,0000.0,0018.72,0006.66,0004.90
2022-07-21 15:36:00,,0829.1,5.00,0.00,29.6,27.9,00.0,38.3,31.5,27.9,0000.0,0019.44,0006.72,0004.92
2022-07-21 15:37:00,,0829.1,5.00,0.00,29.6,28.0,00.0,38.4,31.5,27.4,0000.0,0019.80,0006.73,0004.91
2022-07-21 15:38:00,,0829.1,4.99,0.00,29.6,28.2,00.0,38.4,31.5,27.7,0000.0,0019.37,0006.71,0004.90
2022-07-21 15:39:00,,0829.1,5.01,0.00,29.7,28.3,00.0,38.4,31.6,27.9,0000.0,0019.20,0006.71,0004.90
2022-07-21 15:40:00,,0829.0,5.01,0.00,29.7,28.4,00.0,38.4,31.6,28.0,0000.0,0019.03,0006.68,0004.89
2022-07-21 15:41:00,,0829.0,5.00,0.00,29.7,28.1,00.0,38.3,31.6,27.9,0000.0,0019.10,0006.69,0004.90
2022-07-21 15:42:00,,0829.0,4.99,0.00,29.7,27.5,00.0,38.3,31.5,28.1,0000.0,0019.62,0006.82,0004.91
2022-07-21 15:43:00,,0828.9,5.00,0.00,29.7,27.4,00.0,38.3,31.5,28.5,0000.0,0020.14,0006.81,0004.92
2022-07-21 15:44:00,,0829.0,5.01,0.00,29.6,27.5,00.0,38.3,31.4,28.6,0000.0,0019.83,0006.77,0004.92
2022-07-21 15:45:00,,0828.9,5.00,0.00,29.6,27.6,00.0,38.3,31.4,28.2,0000.0,0019.25,0006.81,0004.94
2022-07-21 15:46:00,,0828.9,5.00,0.00,29.6,27.8,00.0,38.3,31.4,28.3,0000.0,0018.36,0006.80,0004.95
2022-07-21 15:47:00,,0828.9,5.00,0.00,29.6,27.9,00.0,38.3,31.4,28.8,0000.0,0018.43,0006.76,0004.95
2022-07-21 15:48:00,,0828.9,4.99,0.00,29.6,28.1,00.0,38.3,31.5,29.0,0000.0,0019.01,0006.77,0004.98
2022-07-21 15:49:00,,0828.9,5.00,0.00,29.6,28.2,00.0,38.3,31.5,28.5,0000.0,0018.96,0006.79,0005.02
2022-07-21 15:50:00,,0828.9,5.01,0.00,29.6,28.3,00.0,38.3,31.6,28.7,0000.0,0018.97,0006.83,0005.03
2022-07-21 15:51:00,,0828.9,5.00,0.00,29.6,28.1,00.0,38.3,31.6,28.4,0000.0,0018.62,0006.89,0005.06
2022-07-21 15:52:00,,0828.9,5.00,0.00,29.6,27.5,00.0,38.3,31.5,28.2,0000.0,0018.52,0006.98,0005.08
2022-07-21 15:53:00,,0828.9,5.01,0.00,29.6,27.4,00.0,38.2,31.4,28.5,0000.0,0018.19,0006.95,0005.08
2022-07-21 15:54:00,,0828.9,5.00,0.00,29.6,27.4,00.0,38.2,31.4,28.5,0000.0,0017.57,0007.02,0005.10
2022-07-21 15:55:00,,0828.9,4.99,0.00,29.5,27.5,00.0,38.2,31.3,28.0,0000.0,0017.98,0007.07,0005.11
2022-07-21 15:56:00,,0828.9,5.00,0.00,29.5,27.7,00.0,38.3,31.4,28.4,0000.0,0018.80,0007.06,0005.11
2022-07-21 15:57:00,,0828.9,5.00,0.00,29.5,27.9,00.0,38.3,31.4,28.7,0000.0,0019.90,0007.03,0005.11
2022-07-21 15:58:00,,0828.9,5.00,0.00,29.5,28.0,00.0,38.3,31.4,28.3,0000.0,0021.42,0007.13,0005.11
2022-07-21 15:59:00,,0828.9,4.99,0.00,29.6,28.2,00.0,38.3,31.5,28.5,0000.0,0021.01,0007.15,0005.12
